Flag for Turkey Weather past 2 weeks in Istanbul, Turkey

Now
72 °F

Broken clouds.


Feels Like: 76 °F
Forecast: 61 / 78 °F
Wind: 3 mph from West

Location: Istanbul Ataturk Airport

Current Time: Sep 21, 2014 at 5:52:49 PM

Latest Report: Sep 21, 2014 at 5:20 PM


Visibility: N/A

Pressure: 29.92 "Hg

Humidity: 61%

Dew point: 57 °F

Location of IstanbulLocation

Historic Weather in Istanbul — Graph

°F

Istanbul temperature yesterday

Maximum temperature yesterday: 75 °F (at 12:50 PM)
Minimum temperature yesterday: 59 °F (at 4:50 AM)
Average temperature yesterday: 67 °F

Past Weeks' High & Low Weather Summary

 TemperatureHumidityPressure
High84 °F (Sep 10, 2:20 PM)94% (Sep 9, 6:20 AM)30.18 "Hg (Sep 9, 6:20 AM)
Low59 °F (Sep 20, 4:50 AM)20% (Sep 10, 2:20 PM)29.71 "Hg (Sep 6, 4:20 PM)
Average73 °F68%29.96 "Hg
* Reported Sep 6 4:20 PM — Sep 21 4:20 PM, Istanbul, Weather by CustomWeather, © 2014

Note: Actual official high and low records may vary slightly from our data, if they occured in-between our weather recording intervals... More about our weather records

Advertising

Istanbul weather history for previous 24 hours

 ConditionsComfort  
Time TempWeatherWind HumidityBarometerVisibility
4:20 PM
Sep 21
72 °FPartly sunny.5 mph61%29.95 "HgN/A
3:50 PM73 °FBroken clouds.3 mph57%29.95 "HgN/A
3:20 PM72 °FBroken clouds.5 mph65%29.95 "HgN/A
2:50 PM72 °FBroken clouds.7 mph69%29.95 "HgN/A
2:20 PM72 °FBroken clouds.6 mph65%29.95 "HgN/A
1:50 PM72 °FPartly sunny.6 mph65%29.98 "HgN/A
1:20 PM72 °FScattered clouds.6 mph69%29.98 "HgN/A
12:50 PM70 °FPartly sunny.7 mph73%29.98 "HgN/A
12:20 PM72 °FPartly sunny.7 mph69%29.98 "HgN/A
11:50 AM72 °FScattered clouds.5 mph65%29.98 "HgN/A
11:20 AM70 °FPartly sunny.5 mph69%29.98 "HgN/A
10:50 AM70 °FPartly sunny.6 mph69%29.98 "HgN/A
10:20 AM70 °FPartly sunny.5 mph73%30.01 "HgN/A
9:50 AM68 °FPartly sunny.5 mph78%30.01 "HgN/A
9:20 AM68 °FPartly sunny.3 mph78%30.01 "HgN/A
8:50 AM68 °FPartly sunny.5 mph78%29.98 "HgN/A
8:20 AM68 °FScattered clouds.3 mph73%29.98 "HgN/A
7:50 AM66 °FPassing clouds.5 mph73%30.01 "HgN/A
7:20 AM68 °FPassing clouds.5 mph69%30.01 "HgN/A
6:50 AM66 °FClear.3 mph73%30.01 "Hg10 mi
6:20 AM66 °FClear.3 mph73%30.01 "Hg10 mi
5:50 AM66 °FClear.2 mph73%30.01 "Hg10 mi
5:20 AM66 °FPassing clouds.3 mph73%30.01 "HgN/A
4:50 AM64 °FClear.5 mph78%30.01 "Hg10 mi
4:20 AM66 °FClear.2 mph78%30.01 "Hg10 mi
3:50 AM66 °FClear.3 mph73%30.01 "Hg10 mi
3:20 AM66 °FPassing clouds.3 mph73%30.01 "HgN/A
2:50 AM66 °FPassing clouds.5 mph73%30.04 "HgN/A
2:20 AM66 °FPassing clouds.5 mph68%30.01 "HgN/A
1:50 AM70 °FClear.8 mph60%30.04 "Hg10 mi
1:20 AM68 °FPassing clouds.6 mph69%30.04 "HgN/A
12:50 AM68 °FPassing clouds.6 mph64%30.04 "HgN/A
12:20 AM68 °FPassing clouds.5 mph64%30.07 "HgN/A
11:20 PM
Sep 20
68 °FPassing clouds.7 mph69%30.07 "HgN/A
10:50 PM68 °FPassing clouds.7 mph69%30.09 "HgN/A
10:20 PM68 °FPassing clouds.7 mph69%30.09 "HgN/A
9:50 PM68 °FPassing clouds.7 mph69%30.09 "HgN/A
9:20 PM70 °FPassing clouds.8 mph64%30.09 "HgN/A
8:50 PM70 °FPassing clouds.7 mph60%30.12 "HgN/A
Weather by CustomWeather, © 2014

See weather overviewHow to use our weather pages